Wind_Speed
53 51 49 48 47 45 44 46 47 48 48 49 50 51 50 52 54 55 55 55 55 56 58 60 63 64 62 60 59 57 55 53 51 52 54 54 53 52 51 49 48 49 49 49 50 50 51 51 52 51 49 48 47 47 47 48 48 49 51 53 53 54 56 58 59 59 59 58 57 56 55 54 52 51 50 49 50 52 53 56 56 57 59 60 63 68 69
56 55 54 53 51 50 49 48 47 47 47 47 46 47 48 49 51 54 55 55 56 57 57 57 60 61 60 60 60 58 56 55 53 52 53 54 54 53 52 51 50 50 50 51 51 51 51 52 51 50 49 49 50 50 51 51 51 52 53 55 57 58 59 59 58 58 58 58 56 55 54 52 51 50 50 51 52 53 56 58 60 64 65 65 69 73 73
57 56 55 55 55 54 53 52 51 50 49 48 48 48 49 49 51 53 54 55 57 57 56 54 55 56 56 57 57 55 53 52 50 50 50 51 51 51 52 51 50 49 50 52 53 53 52 52 52 51 51 52 52 53 53 53 53 54 55 56 57 58 59 59 58 57 58 57 55 53 51 50 51 52 53 54 55 57 60 63 67 71 71 71 72 74 73
56 56 56 55 55 55 55 55 55 54 53 52 52 52 52 53 53 54 54 55 56 57 57 56 54 52 52 53 52 51 50 49 48 49 50 51 51 52 51 49 47 48 50 52 53 52 51 51 53 53 54 55 55 55 55 56 56 57 56 54 52 52 54 56 56 55 56 55 53 52 52 53 54 56 56 57 60 62 65 69 72 73 74 74 73 72 73
56 56 56 56 56 56 56 56 56 57 56 56 56 56 57 57 57 56 56 57 57 57 57 57 56 53 53 52 51 50 50 49 49 50 51 52 53 53 52 49 48 50 52 54 54 53 52 54 56 58 58 58 59 59 60 60 60 59 57 56 56 56 58 58 56 54 55 55 55 56 57 58 59 60 59 60 62 64 67 71 72 71 74 75 72 71 73
56 57 57 57 57 57 57 58 58 58 58 59 60 60 61 61 61 60 60 60 61 60 59 59 59 59 59 59 58 57 57 57 56 56 55 55 55 55 56 54 53 55 56 57 57 58 59 62 63 63 63 62 62 63 62 61 61 58 57 58 58 58 60 60 57 56 57 59 60 61 62 62 62 61 60 60 62 65 68 71 71 71 74 75 72 71 72
57 57 58 59 60 60 59 59 59 60 60 61 62 64 64 64 65 65 65 65 65 65 64 64 65 65 65 65 64 63 63 63 62 61 60 60 59 59 59 56 54 56 57 57 58 60 62 65 65 64 63 63 63 63 62 60 59 58 56 57 58 58 60 60 59 60 61 62 63 63 63 63 63 62 61 62 65 69 71 70 70 71 74 74 71 72 72
57 57 58 58 59 61 62 61 61 62 62 63 64 66 66 66 67 69 70 70 69 69 69 69 68 68 69 69 67 65 65 65 64 65 65 64 62 62 62 60 59 59 58 57 59 61 62 64 64 63 63 62 61 60 60 58 58 58 57 57 58 60 61 62 62 63 65 64 64 64 64 64 64 64 64 66 68 70 70 69 69 71 73 72 71 72 72
59 59 59 57 57 61 62 62 62 63 64 64 65 66 67 67 69 70 71 71 71 71 71 71 71 71 71 70 69 68 67 65 64 65 66 66 65 66 66 66 66 64 59 59 62 63 63 64 65 65 65 64 63 63 63 63 63 62 62 61 61 62 62 63 64 66 67 66 65 67 67 67 68 67 67 68 69 68 67 68 69 69 70 70 71 72 71
61 60 61 61 62 64 64 62 63 64 66 67 67 67 67 69 70 71 72 72 71 71 71 71 72 71 70 70 70 70 68 66 65 65 66 66 66 67 67 68 67 64 61 62 64 65 66 66 66 65 64 62 63 64 65 65 65 64 63 63 64 64 65 65 65 67 68 67 66 68 67 69 72 71 68 67 67 66 66 67 67 67 68 70 71 70 68
64 63 63 63 65 66 66 64 64 65 66 68 69 69 69 70 71 71 73 73 72 71 71 72 72 70 68 69 69 69 69 69 68 67 66 65 64 64 64 64 65 65 64 64 66 68 70 68 66 65 63 61 62 63 62 62 64 64 63 63 64 64 63 62 62 64 66 66 66 66 68 72 75 72 67 65 65 64 65 67 67 67 69 70 70 69 67
66 66 65 65 66 67 67 66 66 67 67 68 69 70 71 71 71 71 72 72 72 71 72 72 71 70 69 69 68 67 68 70 69 68 66 65 64 63 62 62 63 65 65 66 67 67 68 68 67 68 68 67 67 67 66 66 66 65 65 64 64 62 61 61 63 64 67 67 67 69 74 76 74 69 66 65 65 65 67 69 68 67 68 69 69 69 67
67 67 67 67 67 67 68 67 67 68 69 69 69 70 71 72 72 71 72 73 72 72 72 72 71 71 71 70 70 68 68 69 70 69 66 64 62 62 62 63 63 64 65 67 68 68 69 72 73 73 73 73 72 71 71 71 70 68 67 66 66 66 65 65 65 66 69 70 71 74 77 75 71 69 69 68 66 67 69 70 68 65 66 69 70 69 67
67 67 67 68 67 68 68 68 68 68 69 69 70 70 70 71 72 72 72 72 72 71 72 72 71 71 71 70 70 69 69 69 68 68 66 65 63 63 64 65 66 68 71 72 74 75 78 79 79 78 77 76 75 75 74 72 71 70 70 69 68 67 67 67 67 68 70 71 73 74 75 74 73 72 70 65 64 65 68 70 68 64 65 68 68 66 64
67 67 68 68 68 68 68 68 69 69 68 68 69 70 70 70 71 71 72 72 71 71 71 71 70 70 69 69 69 68 69 69 68 68 67 67 67 67 68 69 71 73 75 77 78 79 80 81 80 79 78 77 76 75 73 71 69 68 68 69 68 67 67 66 67 69 70 71 73 74 76 78 76 71 66 63 64 66 68 69 68 63 63 66 65 63 64
63 65 67 68 67 67 67 67 69 69 69 68 67 68 70 71 71 71 72 72 71 71 70 69 68 69 69 68 69 69 69 69 70 70 69 69 69 70 71 72 73 74 75 76 77 77 78 78 78 78 78 77 76 75 74 72 71 69 68 67 66 66 66 65 66 70 71 72 74 75 77 78 75 69 66 65 66 67 67 68 69 64 61 62 62 63 64
62 62 64 65 65 66 66 66 67 68 68 68 66 66 68 70 70 71 71 72 72 72 70 70 70 70 69 69 69 70 70 70 71 71 72 71 71 71 72 73 74 74 75 75 76 76 77 77 78 78 78 77 76 76 76 75 74 72 69 66 65 65 65 65 68 70 70 71 73 75 75 74 72 69 67 66 67 67 66 69 69 63 59 61 63 64 65
62 62 63 63 63 63 64 65 65 66 66 66 65 65 66 67 69 70 70 70 71 71 70 71 71 71 70 71 71 71 71 71 71 72 73 73 72 72 72 73 73 74 75 75 76 76 76 77 77 77 76 77 77 76 76 75 74 72 70 68 66 66 67 67 68 68 69 70 72 73 74 72 70 69 66 64 64 65 65 66 64 60 60 62 63 63 63
62 62 63 63 62 62 62 62 63 64 65 65 64 63 63 64 65 66 67 68 69 68 68 70 71 70 70 71 71 72 73 72 72 72 73 73 73 72 72 72 73 74 75 75 75 76 76 76 76 75 75 75 74 72 72 71 70 69 69 68 67 67 67 67 67 67 68 68 68 72 74 69 64 64 62 60 63 64 63 61 59 59 61 62 61 62 63
63 63 63 64 64 63 62 61 61 62 63 64 64 63 62 62 62 63 63 65 66 66 66 68 69 68 69 69 69 70 71 71 72 72 72 71 72 71 72 73 73 73 73 73 73 73 73 73 72 72 71 70 69 69 69 69 68 67 66 66 66 66 66 67 67 66 66 66 67 71 71 63 57 59 62 63 64 63 61 59 60 61 62 62 63 64 66
65 64 64 64 64 64 63 62 62 62 62 62 62 62 61 61 61 61 61 62 63 63 64 66 66 66 66 66 66 67 67 67 68 69 69 69 70 70 71 71 70 69 69 69 69 69 69 69 68 68 68 67 67 68 69 68 66 65 65 65 65 66 66 65 65 63 64 65 66 67 65 60 58 62 65 65 64 62 61 62 63 63 64 65 66 67 67
64 65 65 65 65 64 64 63 63 62 62 62 62 61 61 60 60 60 60 61 61 61 62 63 63 63 64 64 63 64 64 64 64 64 64 65 66 66 67 67 66 66 67 67 67 66 66 65 65 65 65 65 66 66 66 66 65 65 64 64 65 64 62 61 61 62 62 63 63 63 63 61 61 64 65 65 64 63 63 64 64 64 66 67 68 69 70
63 63 64 66 66 66 65 64 64 63 62 62 62 61 59 59 60 60 60 59 59 59 60 61 61 61 61 61 61 61 60 59 59 59 60 61 62 62 62 62 62 62 63 63 63 62 62 63 63 63 63 63 63 64 64 64 64 63 62 61 61 60 58 58 59 60 61 61 61 62 62 61 63 66 66 65 64 64 64 65 66 67 68 69 70 71 71
63 62 62 63 65 67 67 67 65 64 63 62 62 61 59 60 60 59 59 58 58 58 58 59 58 56 57 58 59 59 58 57 57 57 58 59 59 59 58 58 58 59 59 59 60 60 61 62 62 62 62 61 61 62 62 62 61 60 59 58 57 56 55 56 58 59 60 61 60 60 62 63 65 67 66 64 64 65 65 66 67 68 69 71 72 72 72
64 63 62 61 62 64 66 67 67 66 65 64 65 64 62 61 60 59 58 58 56 56 56 55 53 53 55 56 57 56 56 56 56 56 56 56 56 56 56 56 57 57 57 58 58 59 60 59 60 60 59 58 59 60 60 60 59 59 58 56 55 54 54 56 58 58 59 60 61 61 63 64 65 66 66 65 65 65 66 67 68 69 70 71 71 72 72
65 64 63 62 61 61 62 65 66 67 67 67 68 67 65 63 62 61 59 58 56 57 57 54 52 53 55 54 54 54 55 55 55 54 54 54 55 55 55 55 56 55 55 56 56 57 57 58 58 58 57 57 58 59 59 59 59 59 58 54 53 54 55 55 57 58 59 60 61 61 62 65 65 66 66 65 65 65 66 67 68 68 68 69 70 71 71
65 64 63 62 61 60 59 60 62 64 65 67 69 68 67 67 66 64 62 60 59 60 58 55 53 54 55 54 55 55 54 54 53 53 53 54 54 54 54 54 54 54 54 55 55 56 57 57 57 56 56 57 58 59 60 60 59 60 59 54 52 53 54 54 57 59 60 61 61 60 62 64 64 63 64 64 63 64 65 65 65 65 66 67 68 68 68
64 63 63 62 62 60 58 57 57 59 61 64 67 68 68 68 67 66 65 64 63 63 61 59 57 57 56 56 57 57 56 55 54 53 54 54 54 54 54 54 54 54 54 55 56 56 57 57 57 57 57 58 59 61 62 61 62 62 59 53 52 53 53 55 59 62 64 63 61 60 61 61 60 59 60 59 59 60 62 61 61 62 63 64 64 64 63
64 62 62 62 61 59 58 57 55 55 55 57 60 63 65 66 67 66 66 66 65 66 65 64 62 61 58 57 57 58 57 57 56 55 56 56 55 55 55 55 55 55 55 56 57 58 58 58 58 59 59 59 60 63 64 63 65 63 58 53 53 54 55 58 62 65 65 63 60 58 59 59 58 57 56 55 54 54 55 55 56 58 58 58 58 58 57
62 61 60 60 59 58 57 56 54 52 51 52 54 57 60 63 64 63 64 65 65 65 66 67 66 64 62 60 58 57 58 59 59 58 57 57 57 56 56 56 57 58 59 60 60 60 60 61 61 61 62 62 63 66 66 66 66 64 58 55 56 57 58 60 63 64 63 60 58 58 58 57 56 55 52 50 48 48 49 51 53 53 52 51 51 52 51
60 58 56 55 56 57 56 53 51 50 51 52 52 54 57 58 57 57 59 61 62 62 63 64 65 66 66 64 61 58 57 58 59 59 60 59 59 58 58 59 59 60 61 62 62 62 63 63 63 63 63 63 64 66 66 66 67 65 59 56 57 58 58 60 61 61 61 59 58 57 56 53 50 48 45 43 43 46 50 52 52 50 49 48 48 48 47
60 58 55 52 51 52 53 51 48 47 49 50 49 50 51 50 49 50 53 55 57 58 58 59 61 63 65 65 63 61 59 58 58 58 60 61 61 61 61 61 61 61 62 63 64 65 65 65 65 65 64 63 65 66 66 66 68 65 59 57 58 58 59 60 61 60 60 58 55 53 50 46 42 41 41 42 45 49 51 52 51 50 49 49 49 47 45
58 56 55 53 51 50 49 48 48 47 46 47 47 47 47 47 47 49 51 52 53 55 55 55 56 57 59 61 62 62 61 60 59 58 58 59 60 61 61 62 62 63 64 65 66 67 66 65 64 64 64 64 64 65 66 67 67 63 59 57 57 56 57 58 57 56 53 49 47 46 45 42 41 43 45 47 48 49 50 51 52 52 52 51 50 47 45
56 52 50 50 51 50 47 46 48 49 47 46 46 46 46 45 45 47 47 47 49 51 52 53 55 54 55 56 58 58 58 59 58 58 58 57 57 59 60 61 62 64 65 66 66 66 66 65 63 63 63 62 61 63 66 67 63 58 54 51 49 49 50 51 50 47 44 42 43 45 45 44 44 46 48 49 49 50 52 53 53 54 55 54 51 48 48
55 54 50 46 47 49 48 47 47 49 48 46 44 44 44 43 42 43 43 43 44 47 48 49 51 51 50 51 52 53 54 55 56 56 56 56 56 57 58 59 60 62 63 63 62 62 62 61 60 60 59 58 59 61 62 57 51 45 42 41 42 43 45 44 43 42 42 43 46 47 47 46 47 48 50 52 53 54 54 54 55 57 58 56 53 51 51
52 54 53 49 46 48 51 51 49 48 48 46 42 42 44 44 42 43 44 44 45 46 46 45 46 46 45 44 46 47 49 50 51 53 54 54 55 56 56 56 57 58 57 56 56 55 55 53 52 53 55 55 55 54 50 44 40 39 40 40 41 42 42 43 43 44 46 48 49 49 49 50 52 52 53 53 54 55 55 56 56 57 57 56 54 53 53
47 50 53 53 50 49 51 53 52 51 50 49 47 47 49 50 50 50 51 51 51 51 49 48 47 46 43 42 43 44 45 47 48 49 51 52 52 53 54 54 54 54 54 54 53 50 48 46 47 50 52 52 50 47 42 39 40 43 44 44 44 44 45 46 47 49 51 52 52 52 52 53 54 54 54 55 55 56 57 57 56 57 57 58 57 55 54
46 49 51 53 54 54 53 53 53 53 54 54 54 55 55 56 57 58 59 59 58 57 56 54 52 50 48 47 47 47 47 48 48 49 50 51 51 52 53 53 52 51 51 52 51 48 47 48 50 51 52 52 49 43 40 41 44 48 49 48 46 46 48 49 51 53 55 55 53 51 51 53 54 55 56 57 57 58 59 60 60 60 61 61 60 57 56
44 49 51 52 54 56 57 56 55 55 56 56 59 60 60 61 62 63 63 63 63 62 62 60 57 55 54 54 54 54 52 52 52 52 52 52 52 52 52 52 51 51 51 52 51 49 49 52 54 54 55 54 49 43 42 46 50 51 51 50 50 51 53 54 54 54 53 51 50 50 52 55 56 57 58 59 59 60 61 61 62 62 62 62 60 59 57
42 45 49 51 52 53 55 58 60 61 61 61 61 62 63 63 63 63 63 64 64 64 64 61 59 58 58 58 59 59 57 57 57 57 57 56 55 53 52 51 50 50 52 54 54 53 55 58 60 60 59 56 49 45 46 50 52 52 52 54 54 53 52 51 49 48 48 50 53 55 57 59 59 59 59 59 60 59 59 58 58 59 59 59 59 57 55
40 41 43 46 47 47 50 55 58 60 62 64 65 66 66 66 65 64 64 63 63 63 61 59 57 57 58 58 60 61 60 60 61 61 61 61 59 58 57 56 54 54 55 55 54 55 56 58 60 61 59 53 48 47 48 49 49 50 52 52 50 47 47 47 48 49 53 58 61 61 60 59 59 59 58 58 57 56 55 54 53 53 54 54 53 52 50
36 37 38 41 43 44 48 52 54 55 56 59 61 63 66 67 67 66 64 63 62 61 59 56 55 54 54 55 59 62 63 64 65 66 67 66 65 64 64 64 64 64 64 62 61 61 60 59 59 59 55 51 49 49 49 49 50 51 52 50 49 49 51 53 55 57 60 62 62 60 59 58 58 58 57 56 55 53 52 50 49 49 49 49 49 49 49
37 36 38 41 45 47 50 52 53 53 54 56 57 58 60 61 62 62 61 60 59 58 56 54 53 52 52 52 55 57 59 61 62 64 66 66 65 65 66 67 68 68 67 67 68 69 67 66 64 60 55 53 52 52 51 51 52 52 53 53 54 56 57 58 58 59 60 60 59 58 57 56 56 55 55 54 52 51 49 47 46 46 46 47 47 48 48
40 40 42 44 47 49 52 53 54 54 54 55 55 56 56 55 55 55 55 54 53 51 50 49 48 48 48 47 48 49 51 52 53 55 58 59 60 61 64 66 66 65 64 65 66 67 67 65 62 57 54 53 51 50 50 50 50 50 51 52 54 55 56 56 57 57 57 57 56 55 55 54 53 53 52 51 49 47 45 44 44 43 44 44 45 46 46
42 45 47 48 50 51 53 54 56 56 56 55 54 53 51 50 49 47 46 46 45 45 44 43 43 43 43 43 43 44 45 46 47 49 51 53 55 57 59 59 60 60 60 61 62 62 62 60 56 52 50 49 47 46 46 47 47 48 49 50 51 53 54 55 56 56 56 55 54 53 52 52 51 50 50 49 47 46 45 45 44 44 44 44 45 46 47
43 46 47 49 50 52 54 55 56 56 55 54 52 50 48 46 45 43 41 40 40 41 41 40 40 41 41 42 44 45 45 45 46 47 48 50 51 53 53 53 54 56 57 57 58 59 58 54 50 48 47 46 45 45 46 46 46 47 48 49 50 52 53 54 54 54 53 53 52 51 51 51 51 51 50 50 49 48 46 45 45 45 45 46 47 48 49
44 46 47 47 48 50 52 54 54 54 53 51 50 48 47 46 46 45 43 42 40 40 41 41 42 43 43 44 45 46 46 47 47 48 48 48 49 49 49 50 52 53 54 55 55 55 52 50 47 47 46 46 46 46 47 47 47 48 49 49 50 51 52 52 52 52 52 51 51 51 51 51 51 51 50 49 48 46 45 44 45 45 46 47 48 49 50
46 46 48 49 48 49 50 50 50 50 51 50 49 49 48 48 47 47 46 45 44 43 43 43 43 44 45 45 46 46 47 47 47 47 47 47 46 45 45 46 48 49 51 52 52 51 49 48 47 47 47 47 47 48 48 49 49 50 51 51 52 52 52 52 52 52 52 52 51 51 51 51 51 50 49 48 47 46 46 46 47 47 48 48 49 49 48
49 48 49 50 51 50 50 49 49 50 50 51 50 50 49 49 48 46 46 45 45 44 44 44 44 44 45 45 45 46 46 47 47 47 46 46 46 45 45 46 48 49 49 50 50 49 48 48 48 49 49 49 49 50 50 50 51 51 51 52 52 52 52 53 53 53 52 52 51 51 51 51 51 50 49 49 48 48 48 48 48 47 47 47 47 47 48
53 53 54 54 54 53 52 51 51 51 52 52 52 51 50 50 49 48 47 46 45 44 43 43 44 44 44 45 45 45 46 46 47 48 48 48 48 48 48 50 51 50 50 50 49 49 50 50 51 51 52 52 52 52 52 51 52 52 52 53 53 53 53 53 52 52 51 50 50 50 50 51 51 51 51 51 50 49 48 48 47 47 47 47 48 48 49
55 56 55 54 53 53 53 53 52 52 52 52 51 51 51 51 51 50 50 49 47 47 46 46 45 45 46 46 47 47 47 48 49 50 51 51 51 51 52 52 52 51 50 51 51 52 53 54 54 54 54 53 53 53 53 53 53 53 53 53 53 52 52 52 51 51 51 51 50 50 49 50 50 51 50 49 49 48 48 47 48 48 48 48 49 49 49
53 53 53 53 51 50 50 49 49 48 47 47 47 48 50 51 53 54 53 52 51 50 50 50 49 49 49 49 50 50 51 52 53 53 54 54 54 54 54 54 52 52 53 54 54 55 55 56 56 55 55 54 54 54 54 54 54 53 53 53 52 52 52 52 52 51 50 50 50 50 50 50 50 49 48 47 47 48 48 49 49 49 49 49 50 50 50
Wind_Direction
238 236 232 231 231 230 225 219 218 222 225 225 226 226 228 229 228 228 231 232 232 232 233 236 239 242 245 246 243 242 244 246 247 248 248 248 248 249 250 250 249 249 249 251 252 255 257 259 260 262 264 265 266 267 267 266 265 264 265 267 269 270 271 272 272 272 272 273 274 274 275 276 278 280 284 283 279 275 272 271 272 271 270 274 277 279 281
244 242 240 238 236 236 234 228 222 222 226 231 233 230 229 230 229 226 226 227 227 228 229 231 235 239 241 242 241 240 241 242 242 242 243 244 245 248 250 250 251 251 253 254 255 256 258 259 261 262 263 265 265 265 265 264 265 266 269 271 272 271 270 270 269 269 270 272 273 274 277 280 281 281 280 277 274 272 271 270 271 273 274 277 280 282 282
246 245 243 242 240 240 238 236 232 229 229 232 237 237 233 232 231 229 227 227 227 228 229 231 234 235 236 237 237 237 237 237 238 238 239 242 246 248 249 250 252 253 254 255 256 257 259 262 263 265 266 266 266 265 265 266 268 270 272 272 271 270 269 268 269 270 271 273 274 275 277 276 274 273 272 272 271 271 271 272 274 277 278 279 280 282 283
244 244 244 243 242 241 240 239 237 235 233 233 236 239 237 235 234 233 232 231 231 230 230 232 234 235 235 235 233 232 233 235 238 239 241 245 247 249 251 251 251 252 253 255 256 258 261 262 264 266 267 266 265 265 266 268 269 270 270 267 267 267 267 269 270 271 273 274 274 273 271 268 268 268 269 270 269 270 271 273 275 278 281 280 281 283 283
242 242 242 242 242 241 240 240 239 237 236 234 234 236 238 239 238 237 237 237 236 233 233 235 236 238 240 240 238 237 238 241 244 245 247 249 249 249 250 250 249 251 253 255 257 259 261 262 263 264 264 265 266 267 268 268 268 268 265 263 263 264 265 268 269 268 268 268 266 266 265 265 266 267 269 270 271 272 273 274 275 278 280 281 282 282 281
241 240 239 239 239 239 239 239 239 238 237 235 234 235 236 239 240 240 240 240 241 240 240 243 245 247 248 249 249 248 249 251 252 253 254 255 253 251 248 247 248 249 252 255 258 261 263 265 266 266 267 267 267 266 265 264 263 262 260 261 262 264 266 267 266 263 263 262 261 262 263 265 267 270 273 274 275 275 274 275 277 279 279 280 282 280 279
239 239 239 238 238 237 237 238 238 238 237 236 235 235 235 236 239 240 240 241 243 245 247 249 250 251 252 252 251 252 253 254 255 256 256 255 254 251 248 246 245 247 251 256 259 261 264 265 265 265 264 262 261 260 259 259 260 260 260 261 262 263 265 266 264 263 263 262 262 264 266 268 270 273 276 276 276 275 275 278 281 281 279 280 281 279 278
238 236 237 238 238 237 237 237 237 237 237 237 236 236 236 236 238 240 241 242 243 245 247 248 250 251 252 253 252 251 252 253 254 255 255 254 253 251 249 248 248 252 257 260 261 261 261 260 258 257 256 254 255 256 257 258 259 259 260 261 262 263 264 265 266 265 265 266 267 268 269 271 272 274 276 276 275 276 279 281 281 279 279 279 279 277 278
238 236 234 233 235 237 237 237 237 237 237 238 238 238 238 238 238 240 242 243 243 244 246 248 249 250 251 253 254 254 253 254 254 255 254 254 253 252 251 251 254 257 258 257 258 259 256 253 252 253 253 253 254 256 257 258 259 260 261 262 263 264 265 266 266 265 266 268 270 270 270 271 271 274 276 276 277 279 280 280 278 277 278 277 276 277 279
238 237 235 232 233 237 238 237 237 237 237 237 238 239 239 239 239 240 242 243 244 245 246 247 248 249 250 252 254 255 255 255 255 254 254 254 254 254 254 254 255 256 255 253 254 252 250 249 251 252 254 256 258 259 259 260 261 263 264 265 266 267 268 269 268 267 268 270 270 270 271 270 272 276 278 279 279 280 278 276 276 277 277 276 277 278 279
238 237 236 234 235 238 239 238 237 237 237 238 238 238 239 239 239 239 240 242 243 245 246 247 248 248 249 251 253 254 255 255 255 255 255 254 253 253 253 254 254 254 253 252 250 247 247 249 251 253 256 259 261 261 261 263 264 265 267 268 268 269 270 269 269 268 269 272 273 272 269 271 276 282 283 281 280 278 277 277 278 278 277 278 278 278 277
238 238 237 236 236 237 239 239 238 238 239 239 239 239 239 240 241 241 241 242 242 244 245 246 248 248 249 250 251 251 253 254 255 255 255 255 254 253 252 252 252 251 250 248 245 246 250 253 255 258 260 261 264 265 265 267 269 269 269 270 271 271 270 269 269 268 269 272 272 270 271 277 282 284 282 280 279 279 279 279 278 278 278 278 277 276 276
238 238 238 238 237 238 238 239 239 240 240 241 241 241 241 241 242 243 243 244 243 244 245 246 247 248 249 249 249 249 250 251 253 254 254 254 253 253 253 252 251 250 248 246 245 249 256 260 261 263 265 266 268 269 269 270 271 271 271 270 271 272 271 270 269 267 268 270 270 271 275 279 281 281 281 282 282 281 280 278 276 276 276 276 275 275 276
240 239 238 238 238 238 238 239 240 241 241 242 242 243 243 243 244 244 245 245 245 245 246 247 247 248 249 250 250 250 250 251 253 254 254 253 251 249 248 249 250 250 250 250 251 253 258 261 263 265 266 267 269 269 270 271 271 271 271 271 271 272 271 269 268 266 267 269 270 271 273 275 279 283 285 284 282 280 277 275 274 274 274 274 275 275 276
242 241 239 238 239 239 239 239 239 240 242 243 244 244 244 244 245 245 246 246 246 246 246 247 248 249 250 250 250 251 251 252 253 253 253 253 252 250 249 249 250 251 252 254 255 256 259 262 264 265 266 268 269 270 270 270 269 269 270 271 272 271 269 268 267 266 267 268 270 272 273 277 282 284 283 280 279 277 275 274 274 274 274 274 274 275 276
244 244 242 240 239 239 240 240 240 240 240 242 244 245 245 245 246 246 246 247 247 246 246 247 248 248 249 250 250 250 251 251 252 252 252 252 252 253 253 253 253 254 255 256 257 258 260 262 264 265 266 267 268 269 269 268 268 269 269 270 270 270 269 267 265 265 267 269 271 273 275 279 282 282 279 278 277 276 275 274 274 275 274 274 274 274 274
244 245 245 244 242 240 240 241 242 242 241 241 242 244 245 246 246 247 248 247 247 247 246 247 248 248 249 249 250 250 251 251 252 253 253 253 253 254 254 255 256 256 257 258 259 259 260 262 263 264 265 266 267 267 268 268 269 269 269 269 268 267 267 266 265 266 269 270 271 272 274 278 280 280 279 278 277 275 274 274 276 278 276 273 273 274 275
244 244 246 247 246 244 242 241 242 243 243 243 243 243 244 245 246 248 249 249 249 249 248 248 248 248 249 249 250 250 251 251 252 253 254 254 254 254 255 256 256 257 257 258 259 260 260 261 262 263 264 265 266 266 267 267 267 268 268 268 267 266 266 266 266 268 269 270 271 273 274 277 280 280 280 279 277 275 274 276 279 279 276 274 275 275 276
243 244 245 246 246 247 246 245 244 244 244 244 243 244 245 245 246 247 248 249 250 250 250 250 249 249 249 250 250 251 251 252 252 253 254 255 255 255 256 256 256 256 257 258 259 259 260 261 262 263 264 264 265 265 265 266 266 267 267 266 266 267 267 267 268 269 270 270 272 273 275 279 282 282 280 277 274 274 276 277 278 276 276 277 277 276 277
243 243 244 245 246 246 247 247 247 246 247 246 245 245 246 246 246 247 248 249 249 249 250 251 251 250 250 251 251 252 252 252 253 253 254 255 255 255 255 256 256 258 259 259 260 260 261 262 262 262 262 263 263 264 264 264 265 266 266 266 266 266 265 266 268 269 270 271 271 273 277 280 280 278 276 275 275 277 279 278 276 276 277 277 277 278 280
243 243 243 244 246 246 247 247 248 248 248 248 248 247 247 247 247 248 248 249 249 249 250 251 252 252 252 252 252 253 253 253 253 253 254 254 255 255 256 257 258 258 259 259 259 259 259 260 260 260 260 261 261 262 263 264 264 264 264 265 264 264 265 267 269 269 269 270 272 274 278 279 277 275 276 276 277 278 278 277 277 278 278 278 279 280 281
243 243 243 243 244 246 246 247 247 248 248 249 249 249 249 249 249 248 248 249 249 249 249 250 251 251 252 253 253 254 254 254 254 254 254 254 254 255 255 256 256 256 257 257 257 258 258 258 259 259 259 259 259 260 261 261 262 262 263 263 264 265 266 267 268 268 269 271 273 276 277 278 278 277 276 276 277 278 277 278 278 279 279 280 281 281 282
244 243 242 242 243 244 245 246 247 247 248 249 249 249 249 249 249 248 248 248 249 249 249 250 250 251 252 253 253 253 253 253 254 254 253 253 253 253 254 254 254 254 255 255 256 256 257 257 257 257 257 258 259 260 260 261 262 263 263 263 264 265 266 266 267 269 270 272 274 276 278 278 277 276 276 277 279 279 278 278 279 280 281 281 282 283 284
243 243 243 242 242 243 244 244 245 246 247 248 248 248 247 247 248 248 249 249 249 249 249 250 251 251 251 251 251 251 252 252 252 252 252 252 253 254 254 254 254 254 253 254 254 254 255 255 256 257 258 259 260 261 261 262 263 263 262 262 263 265 267 268 269 270 272 275 276 277 277 276 276 276 278 279 279 279 279 280 280 281 282 283 284 285 285
242 242 242 242 242 242 243 243 244 245 246 247 248 247 246 247 248 248 248 249 248 248 249 249 250 250 249 249 250 250 251 250 250 251 252 253 253 254 254 254 254 254 254 255 255 255 256 257 258 258 260 261 261 261 262 262 263 262 262 263 265 267 268 270 272 273 275 276 276 276 276 276 277 278 279 279 279 279 280 281 281 282 283 284 285 286 286
241 241 241 241 241 241 241 242 243 244 245 246 247 247 247 247 247 247 247 248 248 248 248 248 248 249 249 249 250 249 249 249 249 250 251 252 253 253 254 254 254 255 255 256 256 257 257 257 258 259 261 261 261 262 262 262 263 263 263 264 266 268 269 271 274 275 275 276 276 277 277 277 277 278 278 279 280 281 281 282 283 283 284 285 285 285 286
240 240 240 240 240 240 241 241 241 242 243 244 246 247 247 247 247 247 247 248 248 249 249 248 247 248 249 249 249 248 248 249 249 250 251 251 252 253 253 254 255 255 255 255 256 257 257 258 259 260 261 261 262 262 262 262 263 263 263 265 267 269 272 274 275 275 275 275 276 277 277 276 277 278 279 280 281 281 281 282 283 284 284 285 285 285 287
238 239 239 239 240 240 240 241 241 241 242 243 245 246 246 246 246 247 247 247 247 248 249 248 247 247 249 249 249 249 249 249 250 250 251 251 251 252 253 254 254 255 255 256 256 256 257 259 260 260 260 261 262 262 263 263 263 263 265 267 269 271 273 274 274 275 274 274 275 276 276 276 277 277 278 279 279 280 281 282 283 283 284 286 287 289 290
236 237 237 238 239 239 239 240 240 241 241 242 244 245 245 245 245 246 246 247 248 249 249 248 247 247 247 249 250 250 250 250 250 251 251 252 252 252 253 254 254 255 255 255 256 257 258 258 259 260 260 261 262 263 264 264 264 265 267 270 271 272 273 274 274 274 275 275 276 276 274 274 274 275 276 277 279 282 284 284 284 285 287 289 290 291 292
234 235 236 236 237 238 238 238 238 238 238 239 240 242 243 244 245 245 247 248 249 250 250 249 248 247 246 247 249 251 252 252 252 251 252 253 253 254 254 255 255 256 256 257 258 258 259 259 260 261 262 262 263 265 265 266 266 267 269 271 272 273 274 275 274 274 275 275 274 272 271 271 272 273 275 278 281 284 284 284 286 290 292 291 291 291 292
231 233 234 235 235 236 236 236 236 235 235 236 237 239 242 244 246 246 246 247 248 249 251 251 250 249 247 245 246 249 252 253 253 253 253 253 254 255 255 256 256 257 258 259 260 260 260 261 261 262 263 264 265 265 266 266 267 269 271 273 275 275 275 273 272 272 273 272 270 269 270 271 272 274 276 279 281 282 283 286 290 292 291 290 291 293 294
229 230 231 232 233 234 235 233 231 232 233 234 236 238 240 242 243 243 244 245 246 247 248 249 250 250 249 247 246 246 248 250 252 253 254 254 255 256 256 257 257 258 259 259 260 260 261 262 263 264 264 265 265 266 266 267 269 272 275 276 276 275 273 271 271 271 270 270 270 270 270 272 274 277 278 279 279 282 286 290 291 290 289 290 291 293 294
227 228 229 230 229 229 230 229 227 228 231 232 233 235 237 237 237 239 241 242 243 244 244 246 247 248 249 249 248 247 248 249 251 252 253 254 255 256 257 258 258 259 258 259 260 261 262 262 263 264 264 264 265 266 266 267 271 276 279 278 276 274 271 270 269 269 269 270 270 271 273 275 277 278 278 279 281 285 288 290 288 287 288 289 289 290 291
224 223 224 228 228 226 226 227 227 227 229 229 229 231 233 233 233 235 238 239 241 242 243 243 244 246 248 249 249 248 249 251 252 253 253 253 254 255 256 257 258 258 259 260 261 261 261 261 262 262 263 263 263 264 266 271 277 281 280 277 274 271 268 266 266 266 267 268 269 272 276 279 279 278 278 281 283 285 286 286 285 285 286 286 287 288 289
222 219 220 224 225 224 222 223 224 225 226 227 227 228 230 231 231 232 234 236 239 241 242 244 245 245 246 248 249 249 249 250 252 253 253 253 253 253 254 255 255 257 258 259 260 260 261 262 262 262 263 262 263 266 272 278 281 279 274 270 268 267 266 267 267 267 268 268 269 273 276 278 278 278 279 280 282 282 282 282 282 283 284 285 285 286 287
223 221 220 220 220 220 222 223 224 225 226 225 224 225 228 228 228 228 229 231 232 234 237 241 243 244 245 246 247 247 248 249 251 252 253 253 253 253 253 253 254 256 257 257 257 259 261 263 263 262 262 263 266 272 278 280 277 273 270 269 269 271 273 274 274 273 271 270 271 274 276 278 278 278 278 279 279 279 279 280 281 281 282 283 284 286 287
221 218 219 219 217 216 220 223 224 224 225 223 221 221 223 224 224 224 225 226 227 229 231 233 237 240 241 243 244 246 247 249 250 251 252 253 253 253 252 252 253 255 255 255 256 258 260 260 258 258 260 264 270 276 278 277 275 274 274 274 276 278 279 278 276 274 273 273 275 277 277 277 277 277 276 276 276 277 277 278 279 278 279 281 284 286 286
221 217 216 218 217 215 216 219 222 224 226 225 224 224 224 224 224 225 225 225 226 227 228 229 232 234 236 238 242 245 247 248 249 251 252 253 253 253 253 253 252 252 253 254 256 257 257 256 256 256 259 264 269 274 276 276 276 276 277 279 280 280 277 275 274 274 275 277 278 278 277 276 276 276 276 276 275 276 276 277 277 278 279 281 283 284 285
222 221 218 219 219 219 218 219 222 224 226 226 227 227 228 228 228 228 229 229 229 229 229 229 231 233 235 238 242 245 247 248 249 251 252 253 253 253 254 256 256 255 254 255 255 256 256 257 258 259 262 265 269 273 275 275 275 276 278 278 277 276 275 275 276 276 276 277 277 276 275 275 275 276 276 276 276 277 278 279 280 280 280 281 282 282 283
220 221 220 221 223 225 225 226 227 227 228 229 229 230 232 233 233 234 235 234 234 234 234 236 237 238 238 239 242 245 247 248 249 249 251 252 253 254 255 256 258 258 258 258 259 259 259 260 261 262 264 267 270 272 272 273 274 275 275 275 275 276 277 277 277 276 275 275 275 276 276 277 277 277 278 278 279 280 281 282 282 281 280 280 280 281 281
224 224 223 224 226 227 230 231 232 231 232 232 233 234 236 237 238 239 240 239 239 239 240 241 243 243 243 243 244 245 247 248 249 249 249 249 251 253 254 255 256 257 258 260 262 263 263 264 264 264 266 268 270 271 271 272 273 274 274 274 275 275 276 276 275 274 273 274 276 278 279 280 280 280 281 282 282 283 283 282 281 280 280 279 278 278 278
228 228 227 228 229 229 230 232 234 234 235 236 236 237 238 240 240 241 242 243 244 244 244 244 245 246 247 246 246 245 246 248 249 250 250 250 251 253 254 255 256 256 258 260 262 263 263 263 264 266 268 271 273 273 274 275 276 276 276 274 273 273 275 276 274 273 273 276 278 280 281 282 282 283 284 285 285 285 284 283 281 280 279 277 276 276 277
225 225 225 226 228 228 229 231 233 235 236 238 238 238 239 240 241 243 244 245 247 248 249 249 249 250 250 249 248 247 248 250 252 252 253 253 254 254 255 255 256 257 259 261 262 262 262 263 264 267 270 273 274 276 277 277 277 276 275 273 273 274 275 275 275 275 276 278 280 282 282 283 283 284 285 285 285 284 283 282 280 279 278 277 276 277 278
223 224 223 223 225 227 229 231 233 235 236 238 240 241 242 244 245 247 249 251 253 254 254 253 253 253 252 252 251 251 251 252 253 253 253 254 254 254 255 256 257 259 261 262 262 263 263 264 266 270 273 275 276 278 278 276 275 273 272 272 272 273 274 274 275 276 277 279 280 282 283 283 283 283 283 282 282 281 280 279 278 278 277 277 278 279 279
220 224 225 226 228 230 232 233 236 237 238 240 243 245 247 250 252 255 256 257 257 256 255 254 253 252 252 251 250 250 250 251 251 251 252 253 253 254 255 257 259 261 261 262 263 263 265 267 270 273 276 276 276 275 273 271 271 270 270 270 271 271 272 274 275 276 278 279 281 281 282 282 281 281 280 280 280 280 279 279 279 278 279 279 279 280 280
219 223 226 228 231 234 235 237 239 240 241 244 247 251 253 255 257 258 258 257 256 254 252 251 250 249 249 249 249 249 250 250 252 253 254 255 256 257 258 259 260 261 262 262 264 265 268 271 274 276 275 274 272 270 269 269 270 269 269 269 270 270 272 274 276 277 279 280 280 280 280 280 280 280 281 281 281 281 281 281 281 281 281 281 281 282 283
225 227 228 230 233 236 238 240 242 244 246 248 250 253 255 256 256 256 255 255 255 253 251 250 249 249 249 250 251 253 254 254 255 255 256 257 259 261 261 261 261 262 263 265 267 270 274 276 276 274 273 272 271 270 270 269 269 269 269 269 270 271 272 274 276 277 278 278 279 279 279 279 279 280 280 280 280 280 280 281 281 282 282 283 284 285 285
227 231 233 234 236 238 241 243 245 246 248 249 249 251 252 254 255 256 257 257 256 256 255 254 253 253 253 253 254 255 255 255 256 256 257 258 259 259 259 260 261 262 266 270 274 277 279 278 275 274 272 272 271 270 270 269 270 270 271 272 272 273 274 276 277 278 278 279 279 278 278 278 278 278 278 278 279 279 280 281 282 283 284 284 285 286 286
227 231 234 236 237 239 242 245 247 248 248 249 249 250 252 254 255 256 257 257 257 256 256 256 255 255 255 254 254 254 254 253 254 254 255 255 256 256 255 256 259 263 269 274 277 278 276 274 272 272 272 272 271 271 271 271 271 272 273 274 275 276 277 278 279 279 280 280 279 279 278 277 276 276 277 278 280 280 281 282 283 283 284 285 286 286 286
232 234 237 238 240 241 243 244 246 248 250 251 252 253 254 255 255 256 256 256 256 256 255 254 254 253 253 252 252 252 252 252 253 253 253 254 255 256 256 258 263 268 272 274 273 271 269 269 269 270 271 272 272 272 273 273 274 274 275 277 278 279 279 279 279 279 278 278 278 278 278 276 275 276 277 279 280 280 281 282 283 284 284 285 285 286 286
240 240 241 242 243 244 245 246 248 250 253 255 256 256 255 255 254 253 253 253 253 253 252 252 252 252 252 252 251 251 252 252 253 254 255 257 258 259 261 264 268 270 270 268 266 266 266 267 269 270 272 273 273 274 275 275 276 277 277 278 278 278 277 276 276 275 275 275 276 276 275 275 275 276 277 278 279 280 282 283 284 284 285 285 285 285 286
241 242 242 242 242 243 245 247 248 249 251 252 252 252 251 250 250 250 251 251 251 252 252 252 251 251 252 252 253 253 253 254 255 256 257 259 261 263 264 266 266 265 263 263 263 264 265 267 269 270 271 272 272 273 274 275 276 276 277 276 276 275 274 274 274 274 274 274 275 275 275 275 275 275 276 278 280 281 282 283 284 284 284 284 285 285 286
Height
5612 5615 5618 5621 5624 5626 5628 5631 5634 5637 5640 5643 5644 5645 5646 5646 5648 5653 5655 5656 5657 5657 5655 5657 5659 5661 5665 5669 5670 5672 5673 5675 5677 5678 5678 5678 5679 5680 5682 5684 5685 5685 5686 5686 5687 5688 5688 5689 5690 5690 5692 5693 5694 5696 5696 5697 5697 5698 5698 5699 5700 5699 5698 5699 5699 5698 5697 5695 5695 5695 5694 5693 5693 5693 5695 5696 5694 5694 5692 5689 5689 5687 5685 5686 5681 5676 5681
5604 5608 5611 5614 5617 5619 5622 5624 5627 5630 5633 5636 5638 5638 5639 5640 5642 5645 5647 5647 5648 5647 5648 5651 5653 5656 5660 5662 5663 5665 5667 5669 5671 5672 5673 5672 5673 5675 5676 5678 5679 5679 5680 5680 5680 5681 5681 5682 5683 5684 5686 5688 5689 5689 5690 5690 5691 5692 5692 5692 5692 5691 5690 5691 5692 5690 5687 5687 5686 5686 5687 5688 5687 5688 5689 5689 5689 5688 5686 5684 5682 5676 5677 5680 5674 5670 5674
5596 5599 5603 5606 5609 5612 5614 5617 5620 5622 5625 5628 5631 5632 5633 5634 5635 5637 5639 5639 5639 5640 5644 5647 5648 5650 5653 5654 5656 5658 5660 5662 5665 5666 5666 5667 5668 5669 5670 5672 5673 5673 5673 5673 5673 5674 5675 5675 5677 5679 5680 5681 5682 5682 5683 5684 5684 5685 5685 5684 5683 5682 5681 5682 5682 5680 5679 5679 5679 5680 5682 5682 5681 5681 5682 5682 5683 5681 5679 5677 5673 5667 5669 5672 5669 5666 5668
5588 5591 5594 5597 5600 5603 5606 5609 5612 5615 5617 5620 5623 5625 5626 5627 5628 5630 5632 5632 5632 5635 5639 5640 5642 5645 5646 5647 5649 5651 5653 5656 5658 5659 5660 5661 5662 5662 5663 5665 5666 5666 5666 5666 5666 5668 5669 5670 5671 5673 5674 5674 5675 5676 5676 5677 5678 5678 5677 5677 5676 5674 5672 5673 5673 5672 5671 5673 5674 5674 5675 5675 5673 5674 5676 5676 5675 5674 5672 5667 5663 5662 5661 5660 5663 5664 5659
5579 5583 5586 5589 5592 5595 5598 5601 5604 5607 5609 5612 5615 5617 5619 5620 5621 5623 5625 5625 5625 5629 5632 5633 5635 5639 5640 5640 5644 5647 5648 5650 5651 5651 5653 5654 5656 5656 5657 5659 5660 5660 5660 5660 5660 5663 5664 5663 5664 5666 5667 5667 5668 5669 5670 5671 5671 5672 5671 5669 5669 5666 5665 5667 5667 5666 5666 5667 5667 5667 5666 5666 5666 5667 5669 5670 5668 5666 5664 5657 5656 5659 5653 5649 5656 5657 5648
5571 5574 5578 5581 5584 5586 5589 5592 5595 5598 5601 5603 5606 5608 5610 5612 5615 5617 5618 5618 5619 5622 5625 5627 5628 5631 5632 5633 5636 5640 5641 5642 5644 5645 5647 5648 5649 5650 5649 5652 5654 5654 5655 5654 5654 5655 5656 5655 5656 5658 5659 5661 5661 5661 5663 5662 5663 5665 5663 5661 5660 5657 5657 5660 5660 5658 5659 5659 5658 5659 5658 5658 5658 5660 5662 5663 5661 5657 5653 5649 5650 5652 5644 5641 5648 5646 5639
5563 5566 5569 5572 5575 5578 5580 5583 5586 5589 5591 5594 5597 5598 5601 5605 5607 5609 5610 5611 5613 5615 5618 5619 5620 5622 5624 5624 5628 5632 5633 5634 5636 5639 5639 5640 5642 5643 5643 5646 5649 5648 5647 5647 5646 5647 5648 5648 5649 5650 5651 5652 5652 5652 5654 5654 5655 5656 5654 5653 5652 5649 5648 5651 5651 5649 5649 5650 5649 5650 5650 5649 5650 5653 5655 5655 5652 5647 5644 5645 5647 5642 5634 5634 5638 5633 5631
5555 5559 5561 5563 5565 5569 5572 5574 5577 5580 5582 5585 5587 5589 5593 5596 5598 5600 5601 5603 5606 5608 5609 5610 5611 5614 5615 5615 5620 5625 5625 5626 5629 5631 5631 5632 5635 5637 5638 5641 5642 5640 5640 5639 5638 5641 5642 5641 5642 5642 5641 5642 5643 5644 5645 5646 5646 5645 5645 5644 5643 5642 5640 5641 5642 5639 5637 5640 5641 5640 5641 5641 5641 5645 5647 5645 5641 5639 5640 5641 5639 5632 5626 5627 5626 5620 5622
5546 5550 5554 5556 5557 5559 5563 5566 5568 5571 5574 5576 5578 5580 5584 5587 5589 5591 5592 5594 5598 5599 5601 5603 5603 5605 5607 5610 5613 5615 5616 5621 5623 5621 5622 5625 5628 5629 5631 5633 5633 5631 5631 5630 5631 5635 5635 5632 5633 5633 5631 5633 5635 5635 5636 5637 5636 5635 5636 5636 5634 5634 5632 5631 5632 5629 5627 5632 5633 5630 5632 5632 5631 5636 5639 5636 5634 5636 5636 5632 5628 5625 5621 5618 5614 5610 5615
5537 5541 5545 5548 5549 5550 5554 5558 5560 5562 5565 5567 5569 5572 5575 5577 5579 5582 5583 5585 5589 5591 5593 5594 5594 5597 5603 5604 5604 5606 5609 5613 5613 5610 5612 5616 5619 5620 5622 5624 5623 5621 5622 5624 5626 5627 5624 5622 5623 5624 5623 5624 5625 5625 5626 5627 5627 5627 5627 5626 5625 5625 5623 5623 5623 5619 5618 5624 5624 5621 5622 5619 5619 5628 5634 5631 5628 5628 5625 5620 5619 5618 5613 5607 5604 5605 5608
5527 5531 5535 5539 5541 5542 5545 5548 5551 5553 5555 5557 5560 5563 5566 5568 5570 5572 5573 5575 5580 5583 5584 5584 5586 5593 5597 5595 5596 5599 5601 5602 5601 5601 5604 5607 5609 5611 5613 5614 5613 5612 5615 5618 5618 5616 5613 5613 5615 5614 5614 5615 5615 5616 5618 5617 5617 5618 5618 5617 5616 5617 5616 5615 5614 5610 5608 5612 5615 5613 5608 5605 5611 5622 5626 5622 5619 5616 5613 5611 5611 5609 5605 5600 5597 5597 5597
5518 5521 5525 5529 5531 5533 5536 5539 5542 5544 5546 5548 5551 5554 5557 5559 5560 5563 5564 5566 5571 5574 5574 5576 5581 5585 5586 5586 5588 5592 5592 5592 5593 5594 5595 5597 5600 5602 5604 5605 5604 5605 5608 5609 5609 5607 5605 5604 5604 5604 5604 5605 5605 5607 5608 5609 5609 5609 5610 5610 5609 5610 5609 5607 5606 5603 5599 5601 5604 5599 5592 5597 5609 5613 5612 5611 5609 5606 5603 5601 5602 5601 5598 5593 5589 5586 5586
5509 5512 5516 5519 5522 5525 5527 5530 5532 5534 5536 5539 5542 5544 5547 5550 5551 5554 5555 5556 5561 5565 5565 5569 5574 5575 5575 5578 5580 5582 5584 5584 5584 5585 5586 5589 5592 5594 5595 5596 5597 5598 5600 5599 5600 5599 5596 5593 5594 5595 5595 5596 5597 5597 5599 5600 5600 5600 5601 5602 5602 5603 5601 5599 5598 5595 5592 5591 5590 5586 5583 5591 5602 5602 5600 5602 5602 5598 5593 5588 5591 5596 5591 5584 5579 5577 5578
5499 5503 5507 5509 5512 5516 5519 5521 5524 5525 5527 5530 5532 5534 5538 5541 5542 5544 5545 5546 5552 5557 5557 5559 5564 5565 5567 5569 5570 5572 5575 5575 5575 5576 5578 5580 5583 5585 5587 5588 5588 5589 5589 5589 5590 5589 5586 5583 5584 5586 5586 5587 5588 5588 5590 5591 5590 5591 5592 5593 5595 5595 5593 5592 5589 5586 5585 5582 5579 5578 5576 5579 5591 5596 5595 5595 5592 5588 5582 5575 5580 5589 5586 5576 5571 5570 5571
5489 5493 5497 5500 5503 5506 5510 5513 5515 5517 5519 5521 5523 5526 5529 5531 5532 5534 5536 5538 5543 5547 5548 5552 5556 5557 5557 5559 5561 5563 5564 5565 5566 5567 5568 5570 5572 5575 5577 5578 5578 5578 5578 5579 5579 5578 5577 5575 5576 5577 5577 5578 5579 5579 5581 5582 5581 5583 5584 5584 5587 5586 5583 5584 5582 5577 5576 5573 5569 5569 5564 5566 5583 5593 5589 5586 5582 5577 5571 5564 5568 5580 5579 5569 5565 5564 5563
5481 5483 5486 5491 5495 5498 5501 5503 5505 5509 5512 5514 5516 5518 5519 5521 5523 5525 5527 5530 5533 5536 5541 5546 5547 5546 5548 5550 5551 5552 5554 5556 5557 5557 5558 5561 5563 5565 5567 5567 5567 5567 5569 5569 5569 5569 5569 5568 5568 5568 5567 5569 5572 5570 5570 5572 5573 5576 5578 5577 5578 5577 5575 5577 5573 5567 5568 5566 5561 5559 5555 5559 5575 5582 5579 5577 5574 5568 5562 5554 5556 5570 5572 5562 5558 5556 5554
5474 5475 5477 5481 5486 5490 5492 5494 5496 5500 5504 5506 5508 5510 5510 5512 5514 5515 5517 5521 5523 5527 5534 5537 5536 5536 5539 5541 5542 5544 5545 5547 5548 5548 5549 5551 5554 5556 5557 5557 5558 5558 5559 5559 5559 5560 5561 5560 5559 5560 5559 5561 5563 5561 5561 5564 5564 5568 5572 5571 5570 5568 5567 5567 5563 5561 5562 5559 5552 5550 5550 5556 5567 5569 5567 5567 5563 5558 5553 5545 5547 5559 5560 5552 5550 5548 5546
5466 5468 5470 5473 5477 5480 5482 5486 5489 5491 5493 5497 5500 5501 5503 5505 5507 5507 5509 5511 5514 5519 5524 5525 5525 5528 5530 5531 5533 5535 5536 5537 5539 5539 5539 5542 5545 5547 5548 5548 5549 5548 5549 5551 5550 5550 5551 5551 5551 5552 5553 5553 5553 5552 5553 5555 5555 5559 5564 5564 5561 5560 5559 5556 5555 5555 5554 5550 5544 5540 5543 5553 5559 5556 5556 5556 5549 5544 5543 5542 5543 5545 5542 5541 5542 5540 5539
5457 5461 5463 5465 5468 5470 5473 5477 5480 5482 5483 5486 5490 5494 5496 5498 5500 5500 5502 5503 5506 5510 5513 5512 5515 5519 5520 5522 5525 5526 5526 5529 5530 5530 5531 5533 5536 5539 5539 5538 5537 5538 5540 5542 5541 5541 5542 5542 5544 5546 5545 5544 5545 5544 5543 5545 5548 5550 5553 5554 5553 5552 5550 5546 5546 5547 5545 5543 5540 5532 5534 5550 5555 5545 5542 5542 5536 5532 5536 5537 5535 5532 5530 5531 5533 5531 5531
5449 5452 5455 5457 5460 5462 5465 5468 5471 5473 5474 5477 5481 5485 5487 5489 5491 5493 5494 5495 5497 5501 5503 5502 5505 5509 5511 5513 5516 5516 5518 5520 5520 5521 5523 5524 5526 5529 5527 5525 5529 5532 5532 5533 5533 5532 5533 5535 5536 5536 5535 5536 5538 5536 5533 5536 5540 5541 5542 5544 5543 5543 5540 5538 5539 5540 5537 5535 5533 5527 5529 5544 5547 5535 5528 5527 5526 5526 5529 5527 5524 5522 5523 5522 5522 5523 5523
5441 5444 5447 5449 5452 5454 5457 5460 5462 5464 5466 5468 5472 5476 5478 5480 5483 5485 5486 5487 5488 5493 5495 5494 5496 5500 5502 5505 5507 5507 5509 5511 5511 5513 5515 5514 5516 5518 5516 5519 5525 5525 5523 5524 5524 5523 5524 5526 5526 5526 5527 5529 5528 5526 5525 5528 5531 5533 5534 5534 5532 5532 5533 5533 5534 5534 5530 5526 5526 5525 5526 5533 5533 5525 5519 5517 5518 5520 5519 5515 5514 5514 5513 5512 5513 5514 5513
5433 5436 5439 5441 5444 5446 5449 5451 5453 5456 5458 5459 5462 5467 5470 5472 5474 5476 5477 5478 5480 5484 5487 5486 5488 5492 5494 5497 5498 5499 5501 5502 5503 5504 5506 5505 5507 5509 5510 5513 5516 5515 5513 5514 5515 5515 5516 5517 5516 5517 5519 5520 5518 5517 5518 5519 5521 5525 5527 5525 5523 5525 5528 5528 5527 5525 5522 5521 5521 5520 5520 5522 5521 5516 5511 5509 5509 5510 5509 5505 5505 5504 5503 5503 5504 5504 5504
5424 5428 5431 5433 5436 5438 5441 5443 5445 5448 5450 5451 5453 5459 5463 5463 5464 5465 5468 5471 5473 5476 5478 5478 5481 5485 5488 5490 5491 5491 5492 5494 5494 5496 5496 5496 5498 5500 5502 5504 5505 5506 5506 5506 5507 5508 5508 5507 5507 5508 5509 5510 5511 5510 5510 5510 5514 5518 5519 5517 5516 5518 5520 5520 5519 5517 5515 5515 5516 5514 5513 5513 5510 5503 5501 5501 5501 5499 5497 5496 5496 5495 5494 5493 5494 5494 5494
5415 5418 5422 5425 5428 5431 5432 5435 5438 5440 5442 5444 5445 5450 5454 5453 5454 5458 5461 5463 5465 5468 5469 5471 5475 5480 5481 5480 5480 5483 5484 5486 5486 5486 5486 5488 5490 5492 5494 5495 5495 5496 5497 5497 5498 5499 5497 5497 5499 5499 5501 5504 5505 5503 5502 5503 5506 5509 5509 5508 5510 5512 5513 5512 5511 5510 5508 5508 5510 5508 5505 5502 5498 5493 5492 5493 5490 5488 5487 5486 5487 5487 5485 5484 5484 5484 5483
5407 5410 5413 5416 5419 5422 5424 5427 5430 5432 5435 5436 5436 5439 5444 5445 5447 5452 5453 5454 5458 5460 5460 5465 5470 5471 5469 5469 5473 5476 5477 5477 5478 5478 5479 5481 5483 5484 5486 5486 5486 5487 5488 5489 5489 5489 5489 5491 5492 5492 5495 5498 5496 5494 5495 5496 5497 5497 5498 5501 5505 5506 5505 5504 5503 5504 5503 5502 5501 5500 5496 5492 5489 5485 5482 5481 5480 5479 5478 5477 5477 5478 5477 5477 5476 5474 5471
5398 5401 5405 5408 5410 5413 5416 5419 5422 5424 5428 5428 5426 5430 5436 5438 5439 5442 5444 5447 5451 5451 5452 5459 5463 5460 5460 5463 5466 5467 5467 5468 5470 5472 5473 5475 5475 5477 5478 5478 5478 5480 5481 5481 5481 5482 5482 5483 5484 5486 5488 5489 5487 5486 5486 5486 5487 5487 5489 5496 5499 5498 5498 5499 5498 5497 5496 5494 5493 5491 5486 5482 5479 5475 5472 5471 5471 5470 5469 5468 5469 5469 5469 5468 5466 5463 5460
5389 5393 5396 5399 5401 5405 5408 5411 5414 5416 5419 5419 5417 5421 5427 5428 5429 5434 5438 5441 5442 5441 5444 5452 5455 5452 5452 5456 5457 5457 5459 5461 5464 5466 5467 5467 5468 5469 5470 5471 5472 5473 5473 5473 5474 5474 5474 5475 5478 5480 5481 5480 5478 5477 5476 5477 5478 5477 5482 5491 5494 5493 5494 5495 5491 5488 5487 5486 5485 5482 5476 5471 5470 5467 5464 5463 5462 5461 5461 5461 5461 5460 5460 5458 5456 5453 5451
5380 5384 5388 5390 5394 5397 5400 5403 5406 5409 5411 5411 5410 5412 5416 5419 5421 5426 5430 5432 5433 5433 5437 5443 5445 5444 5445 5447 5447 5448 5452 5454 5457 5459 5460 5460 5461 5462 5463 5464 5465 5465 5466 5466 5466 5466 5467 5469 5471 5472 5472 5472 5470 5466 5466 5468 5467 5468 5476 5487 5489 5489 5490 5488 5482 5479 5477 5476 5476 5472 5466 5462 5461 5459 5456 5455 5454 5453 5453 5453 5453 5452 5451 5449 5446 5444 5444
5372 5376 5379 5383 5386 5390 5393 5395 5398 5401 5403 5403 5402 5403 5406 5409 5413 5418 5422 5424 5426 5426 5428 5431 5434 5437 5439 5439 5438 5440 5444 5447 5449 5451 5451 5452 5454 5455 5456 5457 5457 5457 5458 5457 5457 5458 5460 5461 5463 5464 5463 5464 5462 5456 5456 5458 5457 5461 5473 5483 5483 5483 5483 5480 5474 5469 5465 5466 5467 5462 5455 5453 5453 5452 5450 5448 5447 5446 5445 5444 5444 5443 5443 5441 5438 5436 5435
5364 5368 5371 5375 5378 5382 5385 5388 5391 5394 5394 5393 5394 5395 5396 5399 5405 5412 5416 5417 5418 5418 5418 5419 5423 5428 5432 5432 5432 5433 5435 5437 5440 5442 5443 5444 5446 5447 5448 5448 5449 5449 5448 5448 5449 5451 5452 5453 5455 5455 5455 5456 5453 5447 5447 5448 5448 5456 5470 5477 5476 5476 5476 5471 5465 5459 5456 5457 5455 5448 5445 5446 5445 5444 5444 5443 5442 5440 5437 5436 5437 5436 5435 5433 5431 5430 5429
5357 5360 5364 5368 5371 5374 5378 5381 5384 5385 5384 5383 5386 5388 5389 5393 5402 5407 5408 5408 5409 5409 5408 5409 5413 5417 5420 5424 5427 5428 5428 5429 5430 5432 5434 5437 5438 5439 5439 5439 5440 5440 5440 5440 5441 5442 5442 5445 5447 5446 5447 5448 5443 5438 5437 5437 5439 5451 5467 5472 5469 5468 5466 5459 5453 5449 5447 5447 5442 5437 5437 5439 5438 5437 5438 5438 5436 5433 5430 5430 5431 5429 5427 5426 5424 5423 5423
5349 5353 5357 5362 5365 5368 5371 5374 5377 5376 5375 5377 5381 5383 5385 5390 5396 5398 5398 5399 5400 5400 5400 5402 5403 5405 5407 5413 5420 5423 5422 5421 5421 5423 5426 5429 5431 5431 5430 5431 5432 5432 5431 5431 5430 5431 5435 5437 5437 5437 5439 5439 5433 5428 5428 5429 5434 5448 5462 5464 5460 5457 5453 5447 5443 5440 5438 5437 5433 5429 5430 5432 5432 5431 5431 5430 5429 5426 5424 5424 5424 5421 5419 5418 5418 5417 5417
5343 5347 5351 5355 5358 5362 5365 5367 5368 5369 5369 5372 5375 5377 5380 5384 5388 5388 5390 5391 5392 5392 5394 5394 5394 5396 5399 5404 5410 5415 5415 5414 5415 5417 5419 5421 5423 5422 5422 5423 5423 5422 5421 5421 5422 5424 5426 5428 5428 5428 5429 5428 5424 5420 5418 5422 5432 5445 5452 5452 5448 5445 5440 5436 5434 5432 5431 5430 5426 5422 5423 5426 5427 5425 5422 5422 5423 5421 5419 5417 5415 5413 5412 5411 5411 5411 5410
5336 5342 5345 5348 5352 5355 5358 5360 5361 5361 5363 5366 5369 5372 5375 5378 5380 5381 5383 5384 5385 5385 5386 5386 5387 5389 5392 5396 5401 5407 5408 5408 5408 5410 5412 5414 5415 5414 5414 5415 5413 5411 5411 5414 5415 5414 5414 5418 5421 5418 5416 5417 5416 5412 5411 5421 5433 5440 5440 5438 5436 5432 5427 5426 5426 5425 5424 5423 5419 5416 5417 5419 5419 5417 5416 5416 5416 5415 5412 5410 5408 5406 5404 5404 5405 5405 5403
5329 5335 5339 5341 5345 5348 5350 5352 5352 5354 5357 5361 5365 5368 5369 5372 5374 5375 5376 5378 5378 5378 5379 5380 5381 5383 5387 5390 5394 5399 5401 5401 5401 5402 5403 5405 5406 5405 5405 5405 5403 5402 5404 5406 5406 5403 5404 5409 5412 5408 5405 5407 5408 5406 5411 5422 5428 5428 5426 5426 5424 5421 5418 5418 5419 5419 5418 5414 5411 5410 5411 5411 5411 5411 5410 5410 5409 5407 5405 5403 5401 5398 5397 5397 5399 5398 5396
5323 5328 5331 5334 5337 5340 5343 5344 5346 5349 5352 5357 5361 5363 5363 5365 5367 5368 5369 5371 5371 5372 5373 5374 5374 5377 5382 5384 5387 5391 5393 5394 5395 5395 5394 5395 5396 5396 5396 5396 5394 5394 5396 5396 5395 5395 5398 5402 5402 5398 5396 5397 5400 5405 5412 5417 5417 5416 5416 5415 5414 5413 5412 5412 5413 5412 5409 5406 5404 5404 5405 5404 5403 5403 5403 5402 5401 5398 5396 5395 5394 5391 5390 5390 5391 5391 5389
5317 5321 5324 5327 5330 5332 5334 5337 5339 5342 5345 5349 5353 5354 5353 5355 5357 5359 5360 5362 5363 5365 5367 5367 5369 5372 5377 5379 5381 5384 5386 5386 5387 5387 5387 5387 5387 5388 5388 5388 5387 5388 5387 5386 5387 5391 5394 5394 5393 5390 5389 5391 5397 5403 5407 5408 5407 5406 5406 5405 5406 5407 5406 5404 5404 5402 5399 5397 5397 5398 5398 5396 5395 5395 5394 5393 5392 5390 5388 5387 5387 5385 5382 5382 5383 5383 5381
5311 5314 5318 5321 5322 5324 5327 5330 5333 5336 5338 5341 5343 5343 5343 5345 5348 5349 5350 5352 5354 5356 5358 5360 5363 5367 5370 5372 5374 5376 5378 5379 5380 5380 5380 5380 5380 5379 5379 5380 5381 5382 5380 5379 5383 5386 5386 5384 5383 5383 5384 5387 5394 5399 5401 5401 5399 5398 5397 5398 5399 5398 5396 5395 5394 5392 5389 5389 5390 5391 5389 5387 5386 5386 5385 5384 5384 5383 5381 5380 5379 5377 5375 5375 5375 5374 5373
5304 5307 5311 5313 5315 5318 5322 5326 5328 5329 5331 5332 5333 5334 5335 5337 5338 5340 5342 5344 5347 5349 5350 5353 5358 5362 5364 5366 5367 5369 5371 5372 5372 5373 5374 5374 5373 5373 5373 5373 5375 5375 5374 5374 5377 5380 5378 5375 5375 5377 5379 5383 5389 5394 5396 5394 5392 5390 5390 5390 5390 5388 5386 5386 5385 5383 5381 5381 5381 5381 5380 5378 5377 5378 5378 5376 5376 5376 5374 5373 5371 5369 5367 5366 5366 5365 5364
5298 5301 5304 5307 5310 5314 5318 5320 5321 5322 5323 5324 5324 5326 5327 5328 5330 5333 5336 5338 5341 5343 5345 5350 5355 5358 5359 5360 5361 5362 5364 5365 5365 5366 5367 5367 5366 5367 5368 5368 5369 5368 5366 5366 5370 5372 5370 5368 5367 5368 5372 5378 5385 5389 5389 5386 5384 5384 5383 5381 5380 5379 5378 5377 5376 5375 5373 5372 5371 5371 5371 5370 5369 5369 5369 5368 5368 5367 5366 5365 5363 5361 5359 5358 5357 5356 5356
5294 5297 5300 5303 5306 5309 5311 5311 5312 5314 5315 5316 5317 5318 5319 5321 5323 5326 5328 5331 5334 5338 5342 5347 5351 5353 5355 5356 5356 5356 5358 5359 5359 5359 5359 5359 5360 5361 5360 5361 5362 5360 5357 5359 5363 5364 5361 5359 5358 5359 5366 5374 5379 5380 5380 5378 5378 5377 5375 5373 5372 5372 5370 5369 5368 5367 5364 5362 5362 5362 5363 5362 5361 5360 5360 5360 5359 5358 5358 5357 5355 5353 5352 5350 5349 5349 5348
5292 5295 5298 5299 5301 5302 5302 5302 5303 5306 5307 5308 5309 5310 5311 5313 5315 5319 5322 5325 5329 5333 5338 5343 5346 5348 5350 5352 5351 5350 5350 5351 5351 5350 5350 5351 5353 5353 5353 5353 5353 5351 5350 5354 5356 5355 5352 5351 5350 5353 5362 5370 5372 5371 5371 5371 5370 5370 5368 5366 5364 5363 5361 5360 5359 5358 5355 5354 5354 5354 5355 5354 5353 5352 5352 5351 5349 5349 5348 5347 5346 5345 5344 5343 5342 5342 5341
5287 5290 5291 5292 5293 5294 5294 5295 5296 5298 5299 5299 5300 5302 5303 5305 5309 5313 5317 5321 5325 5330 5335 5339 5342 5343 5344 5344 5343 5343 5343 5343 5343 5343 5342 5343 5345 5346 5345 5344 5343 5343 5345 5348 5347 5344 5343 5343 5345 5351 5359 5364 5364 5363 5364 5363 5362 5360 5358 5356 5354 5353 5351 5350 5349 5348 5347 5346 5346 5346 5346 5346 5345 5344 5343 5342 5340 5340 5339 5339 5338 5337 5336 5336 5335 5334 5333
5281 5282 5284 5285 5285 5286 5287 5288 5288 5289 5290 5291 5293 5296 5298 5302 5306 5311 5315 5320 5324 5327 5330 5333 5334 5335 5335 5335 5335 5334 5334 5335 5335 5335 5334 5335 5337 5337 5335 5334 5335 5337 5339 5338 5335 5334 5335 5338 5343 5350 5355 5356 5356 5357 5355 5353 5351 5349 5347 5346 5345 5343 5342 5340 5339 5339 5339 5339 5339 5339 5338 5338 5337 5337 5335 5334 5333 5332 5331 5331 5330 5330 5329 5328 5327 5326 5325
5274 5275 5277 5279 5279 5279 5280 5281 5281 5282 5285 5287 5290 5293 5297 5301 5306 5310 5314 5317 5319 5320 5322 5324 5325 5324 5324 5324 5324 5324 5325 5326 5326 5326 5326 5327 5327 5327 5327 5328 5329 5330 5329 5328 5327 5327 5329 5334 5342 5347 5349 5348 5348 5347 5344 5341 5340 5339 5338 5338 5336 5335 5333 5332 5332 5331 5332 5332 5332 5331 5330 5330 5330 5329 5328 5327 5326 5325 5324 5323 5323 5322 5321 5320 5319 5318 5317
5268 5269 5270 5272 5272 5272 5273 5274 5275 5277 5281 5285 5289 5292 5296 5300 5303 5305 5307 5308 5309 5311 5313 5314 5314 5314 5315 5315 5315 5316 5318 5319 5319 5319 5319 5320 5319 5319 5321 5323 5322 5320 5319 5319 5319 5321 5325 5333 5339 5341 5339 5338 5338 5336 5334 5333 5332 5331 5330 5329 5328 5327 5326 5325 5325 5325 5324 5324 5324 5323 5323 5322 5322 5321 5320 5319 5318 5317 5316 5316 5315 5314 5313 5312 5311 5310 5309
5262 5263 5264 5266 5266 5265 5266 5268 5271 5275 5279 5283 5287 5290 5292 5294 5295 5297 5299 5300 5302 5304 5305 5305 5306 5306 5307 5307 5308 5309 5311 5312 5312 5312 5313 5313 5313 5313 5314 5313 5312 5311 5311 5312 5314 5318 5324 5329 5331 5330 5328 5328 5327 5326 5325 5325 5324 5322 5322 5321 5320 5320 5319 5319 5318 5318 5318 5317 5317 5316 5315 5315 5314 5313 5312 5311 5310 5310 5309 5308 5307 5306 5305 5304 5303 5302 5300
5256 5257 5258 5259 5259 5260 5262 5265 5269 5272 5274 5278 5281 5283 5284 5286 5288 5290 5292 5294 5295 5297 5297 5298 5299 5300 5300 5301 5302 5304 5304 5304 5305 5305 5306 5306 5306 5306 5305 5304 5303 5304 5305 5307 5311 5315 5318 5319 5319 5318 5318 5318 5317 5317 5317 5316 5315 5315 5315 5314 5313 5313 5313 5312 5312 5312 5311 5310 5310 5309 5308 5307 5306 5305 5304 5304 5303 5302 5301 5300 5299 5298 5297 5295 5294 5293 5292
5249 5250 5250 5251 5253 5255 5258 5261 5264 5265 5267 5270 5274 5276 5278 5280 5282 5284 5285 5287 5288 5290 5291 5291 5292 5293 5293 5294 5295 5296 5296 5296 5297 5299 5299 5298 5299 5299 5299 5297 5297 5299 5302 5305 5307 5308 5308 5308 5308 5308 5308 5308 5308 5308 5308 5308 5308 5308 5307 5307 5307 5306 5306 5305 5305 5304 5303 5303 5302 5301 5300 5299 5298 5297 5297 5296 5295 5294 5293 5292 5291 5290 5288 5287 5286 5285 5283
5241 5242 5243 5245 5247 5250 5253 5255 5257 5259 5261 5264 5267 5270 5272 5274 5276 5277 5278 5280 5282 5283 5284 5284 5285 5286 5286 5287 5287 5288 5288 5289 5290 5291 5291 5291 5292 5293 5292 5291 5293 5297 5299 5300 5300 5299 5298 5298 5298 5299 5299 5299 5299 5299 5299 5300 5300 5300 5300 5299 5299 5298 5298 5297 5297 5296 5295 5295 5294 5293 5292 5291 5290 5290 5289 5288 5287 5286 5285 5284 5283 5282 5281 5279 5278 5277 5275
5234 5235 5237 5240 5243 5245 5247 5249 5251 5253 5256 5259 5261 5263 5265 5266 5268 5269 5270 5272 5274 5275 5276 5277 5278 5278 5278 5278 5279 5280 5281 5281 5282 5282 5283 5285 5286 5286 5286 5288 5291 5293 5292 5291 5291 5290 5289 5289 5289 5290 5290 5291 5291 5291 5291 5292 5292 5292 5291 5291 5290 5290 5290 5289 5288 5288 5287 5286 5285 5285 5284 5283 5282 5282 5281 5280 5279 5278 5277 5276 5275 5274 5273 5271 5270 5269 5267
5227 5229 5231 5235 5238 5240 5241 5243 5245 5247 5249 5251 5253 5254 5255 5256 5258 5260 5262 5264 5267 5268 5269 5269 5270 5270 5270 5271 5272 5273 5273 5273 5274 5275 5276 5278 5280 5280 5282 5284 5285 5284 5283 5282 5282 5281 5281 5281 5281 5282 5282 5282 5283 5283 5283 5283 5283 5283 5283 5282 5282 5281 5281 5280 5280 5280 5279 5278 5278 5277 5276 5275 5274 5274 5273 5272 5271 5270 5269 5268 5267 5266 5264 5263 5262 5260 5258